Mora, MN

9:44 PM CST on February 25, 2017 (GMT -0600)
Mora Municipal

Weather History for KJMR - March, 2014

Change the Weather History Date:

Monday, March 3, 2014

  Actual Average Record
Temperature  
Mean Temperature -8 °F -  
Max Temperature 6 °F 33 °F 55 °F (1983)
Min Temperature -23 °F 11 °F -23 °F (2014)
Degree Days  
Heating Degree Days 74    
Moisture  
Dew Point -14 °F    
Average Humidity 64    
Maximum Humidity 85    
Minimum Humidity 43    
Precipitation  
Precipitation 0.00 in - - ()
Sea Level Pressure  
Sea Level Pressure 30.39 in    
Wind  
Wind Speed 1 mph (SSE)    
Max Wind Speed 7 mph    
Max Gust Speed -    
Visibility 9 miles    
Events Snow    
Averages and records for this station are not official NWS values.
T = Trace of Precipitation, MM = Missing Value Source: NWS Daily Summary

Daily Weather History Graph

Daily Weather History Graph

Search for Another Location

Airport or City:

Trip Planner

Search our weather history database for the weather conditions in past years. The results will help you decide how hot, cold, wet, or windy it might be!

Date:

Astronomy

Mar. 03, 2014 Rise Set
Actual Time 6:48 AM CST 6:02 PM CST
Civil Twilight 6:18 AM CST 6:32 PM CST
Nautical Twilight 5:43 AM CST 7:06 PM CST
Astronomical Twilight 5:09 AM CST 7:41 PM CST
Moon 7:46 AM CST (3/3) 9:18 PM CST (3/3)
Length of Visible Light 12h 14m
Length of Day
11h 14m
Waxing Crescent, 8% of the Moon is Illuminated
Mar 3
Waxing Crescent
Mar 8
First Quarter
Mar 16
Full
Mar 23
Last Quarter
Mar 30
New

Hourly Weather History & Observations

Time (CST) Temp. Windchill Dew Point Humidity Pressure Visibility Wind Dir Wind Speed Gust Speed Precip Events Conditions
12:12 AM -14.8 °F - -22.0 °F 70% 30.49 in 10.0 mi Calm Calm - N/A   Clear
12:32 AM -14.8 °F - -22.0 °F 70% 30.49 in 10.0 mi Calm Calm - N/A   Clear
12:52 AM -14.8 °F - -23.8 °F 64% 30.49 in 10.0 mi Calm Calm - N/A   Clear
1:11 AM -14.8 °F - -23.8 °F 64% 30.50 in 10.0 mi Calm Calm - N/A   Clear
1:32 AM -14.8 °F - -22.0 °F 70% 30.50 in 10.0 mi Calm Calm - N/A   Clear
1:51 AM -18.4 °F - -23.8 °F 76% 30.50 in 10.0 mi Calm Calm - N/A   Clear
2:11 AM -18.4 °F - -25.6 °F 70% 30.51 in 10.0 mi Calm Calm - N/A   Clear
2:32 AM -18.4 °F - -25.6 °F 70% 30.51 in 10.0 mi Calm Calm - N/A   Clear
2:51 AM -18.4 °F - -25.6 °F 70% 30.51 in 10.0 mi Calm Calm - N/A   Clear
3:12 AM -20.2 °F - -27.4 °F 69% 30.50 in 10.0 mi Calm Calm - N/A   Clear
3:31 AM -22.0 °F - -27.4 °F 76% 30.50 in 10.0 mi Calm Calm - N/A   Clear
3:52 AM -20.2 °F - -27.4 °F 69% 30.50 in 10.0 mi Calm Calm - N/A   Clear
4:11 AM -22.0 °F - -29.2 °F 69% 30.50 in 10.0 mi Calm Calm - N/A   Clear
4:32 AM -23.8 °F - -31.0 °F 69% 30.49 in 10.0 mi Calm Calm - N/A   Clear
4:52 AM -23.8 °F - -29.2 °F 76% 30.49 in 10.0 mi Calm Calm - N/A   Clear
5:11 AM -22.0 °F - -29.2 °F 69% 30.49 in 10.0 mi Calm Calm - N/A   Clear
5:32 AM -23.8 °F - -31.0 °F 69% 30.49 in 10.0 mi Calm Calm - N/A   Clear
5:51 AM -23.8 °F - -29.2 °F 76% 30.49 in 10.0 mi Calm Calm - N/A   Clear
6:12 AM -23.8 °F - -31.0 °F 69% 30.48 in 10.0 mi Calm Calm - N/A   Clear
6:31 AM -23.8 °F - -31.0 °F 69% 30.49 in 10.0 mi Calm Calm - N/A   Clear
6:52 AM -22.0 °F - -27.4 °F 76% 30.49 in 10.0 mi Calm Calm - N/A   Clear
7:12 AM -20.2 °F - -27.4 °F 69% 30.48 in 10.0 mi Calm Calm - N/A   Clear
7:31 AM -18.4 °F - -25.6 °F 70% 30.47 in 10.0 mi Calm Calm - N/A   Clear
7:52 AM -14.8 °F - -23.8 °F 64% 30.47 in 10.0 mi Calm Calm - N/A   Scattered Clouds
8:11 AM -13.0 °F - -20.2 °F 70% 30.46 in 10.0 mi Calm Calm - N/A   Mostly Cloudy
8:32 AM -7.6 °F - -16.6 °F 65% 30.46 in 10.0 mi Calm Calm - N/A   Mostly Cloudy
8:51 AM -7.6 °F - -18.4 °F 59% 30.45 in 10.0 mi Calm Calm - N/A   Scattered Clouds
9:11 AM -5.8 °F - -16.6 °F 60% 30.45 in 10.0 mi Calm Calm - N/A   Clear
9:32 AM -4.0 °F - -16.6 °F 55% 30.45 in 10.0 mi Calm Calm - N/A   Clear
9:51 AM -2.2 °F - -16.6 °F 50% 30.44 in 10.0 mi Calm Calm - N/A   Scattered Clouds
10:12 AM -0.4 °F - -16.6 °F 46% 30.44 in 10.0 mi Calm Calm - N/A   Mostly Cloudy
10:31 AM -0.4 °F -10.4 °F -14.8 °F 51% 30.44 in 10.0 mi SSW 4.6 mph - N/A   Overcast
10:52 AM -0.4 °F -8.3 °F -14.8 °F 51% 30.44 in 10.0 mi SSW 3.5 mph - N/A   Overcast
11:12 AM 1.4 °F -9.9 °F -14.8 °F 47% 30.43 in 10.0 mi SSW 5.8 mph - N/A   Overcast
11:31 AM 3.2 °F -6.2 °F -13.0 °F 47% 30.42 in 10.0 mi SW 4.6 mph - N/A   Overcast
11:52 AM 5.0 °F -4.1 °F -11.2 °F 47% 30.41 in 10.0 mi South 4.6 mph - N/A   Overcast
12:12 PM 5.0 °F -4.1 °F -11.2 °F 47% 30.41 in 10.0 mi South 4.6 mph - N/A   Overcast
12:31 PM 5.0 °F -6.9 °F -13.0 °F 43% 30.41 in 10.0 mi SSW 6.9 mph - N/A   Overcast
12:52 PM 5.0 °F -4.1 °F -11.2 °F 47% 30.40 in 10.0 mi SSW 4.6 mph - N/A   Overcast
1:11 PM 5.0 °F - -13.0 °F 43% 30.39 in 10.0 mi Calm Calm - N/A   Overcast
1:31 PM 5.0 °F -2.1 °F -11.2 °F 47% 30.39 in 10.0 mi South 3.5 mph - N/A   Overcast
1:52 PM 6.8 °F -2.0 °F -9.4 °F 48% 30.38 in 10.0 mi SSE 4.6 mph - N/A   Overcast
2:11 PM 6.8 °F -2.0 °F -9.4 °F 48% 30.37 in 10.0 mi SE 4.6 mph - N/A   Overcast
2:32 PM 6.8 °F -2.0 °F -9.4 °F 48% 30.37 in 10.0 mi SSE 4.6 mph - N/A   Mostly Cloudy
2:51 PM 6.8 °F -0.1 °F -9.4 °F 48% 30.36 in 10.0 mi South 3.5 mph - N/A   Overcast
3:12 PM 6.8 °F -0.1 °F -9.4 °F 48% 30.36 in 10.0 mi SW 3.5 mph - N/A   Overcast
3:31 PM 6.8 °F -0.1 °F -9.4 °F 48% 30.36 in 10.0 mi South 3.5 mph - N/A   Overcast
3:51 PM 6.8 °F -3.5 °F -9.4 °F 48% 30.34 in 10.0 mi South 5.8 mph - N/A   Overcast
4:12 PM 6.8 °F -3.5 °F -9.4 °F 48% 30.34 in 10.0 mi SSE 5.8 mph - N/A   Overcast
4:32 PM 6.8 °F -2.0 °F -7.6 °F 52% 30.32 in 10.0 mi SSE 4.6 mph - N/A   Overcast
4:52 PM 6.8 °F -2.0 °F -7.6 °F 52% 30.33 in 10.0 mi South 4.6 mph - N/A   Overcast
5:11 PM 6.8 °F -0.1 °F -7.6 °F 52% 30.32 in 10.0 mi South 3.5 mph - N/A   Overcast
5:32 PM 6.8 °F - -5.8 °F 56% 30.31 in 5.0 mi Calm Calm - N/A Snow Light Snow
5:51 PM 6.8 °F - -4.0 °F 61% 30.31 in 4.0 mi Calm Calm - N/A Snow Light Snow
6:11 PM 6.8 °F -0.1 °F -4.0 °F 61% 30.30 in 4.0 mi East 3.5 mph - N/A Snow Light Snow
6:32 PM 5.0 °F - -4.0 °F 66% 30.30 in 10.0 mi Calm Calm - N/A Snow Light Snow
6:51 PM 5.0 °F - -4.0 °F 66% 30.30 in 3.0 mi Calm Calm - N/A Snow Light Snow
7:12 PM 5.0 °F - -0.4 °F 78% 30.29 in 2.0 mi Calm Calm - N/A Snow Light Snow
7:31 PM 5.0 °F -2.1 °F -0.4 °F 78% 30.28 in 3.0 mi East 3.5 mph - N/A Snow Light Snow
7:52 PM 5.0 °F -2.1 °F -0.4 °F 78% 30.28 in 4.0 mi ESE 3.5 mph - N/A Snow Light Snow
8:11 PM 5.0 °F -4.1 °F -0.4 °F 78% 30.27 in 2.0 mi East 4.6 mph - N/A Snow Light Snow
8:31 PM 5.0 °F -2.1 °F -0.4 °F 78% 30.27 in 1.8 mi East 3.5 mph - N/A Snow Light Snow
8:51 PM 5.0 °F -2.1 °F -0.4 °F 78% 30.27 in 5.0 mi East 3.5 mph - N/A Snow Light Snow
9:12 PM 5.0 °F - 1.4 °F 85% 30.26 in 7.0 mi Calm Calm - N/A Snow Light Snow
9:31 PM 6.8 °F -2.0 °F 1.4 °F 79% 30.25 in 10.0 mi East 4.6 mph - N/A Snow Light Snow
9:51 PM 6.8 °F -2.0 °F 3.2 °F 85% 30.24 in 10.0 mi East 4.6 mph - N/A Snow Light Snow
10:11 PM 6.8 °F -2.0 °F 3.2 °F 85% 30.24 in 7.0 mi East 4.6 mph - N/A Snow Light Snow
10:31 PM 6.8 °F -2.0 °F 1.4 °F 79% 30.24 in 10.0 mi ESE 4.6 mph - N/A Snow Light Snow
10:52 PM 6.8 °F -0.1 °F 1.4 °F 79% 30.24 in 10.0 mi SE 3.5 mph - N/A Snow Light Snow
11:11 PM 6.8 °F -2.0 °F 1.4 °F 79% 30.24 in 7.0 mi ESE 4.6 mph - N/A Snow Light Snow
11:32 PM 6.8 °F - 1.4 °F 79% 30.24 in 10.0 mi Calm Calm - N/A Snow Light Snow
11:51 PM 6.8 °F - 1.4 °F 79% 30.24 in 10.0 mi Calm Calm - N/A   Overcast